Stündliche Wetter Abraveses

Heute, 23 Juni, Mittwoch

Zeit Temperatur Niederschläge Wind Luftdruck Luftfeuchtigkeit
00:00 +12°C° 0 mm 2 m/S 722 mmHg 80%
01:00 +12°C° 0 mm 2 m/S 722 mmHg 80%
02:00 +12°C° 0 mm 2 m/S 722 mmHg 81%
03:00 +12°C° 0 mm 2 m/S 722 mmHg 80%
04:00 +12°C° 0 mm 2 m/S 722 mmHg 79%
05:00 +12°C° 0 mm 2 m/S 722 mmHg 78%
06:00 +14°C° 0 mm 2 m/S 722 mmHg 69%
07:00 +16°C° 0 mm 3 m/S 722 mmHg 60%
08:00 +18°C° 0 mm 3 m/S 723 mmHg 51%
09:00 +20°C° 0 mm 3 m/S 723 mmHg 46%
10:00 +21°C° 0 mm 3 m/S 723 mmHg 41%
11:00 +22°C° 0 mm 3 m/S 723 mmHg 36%
12:00 +24°C° 0 mm 2 m/S 723 mmHg 34%
13:00 +24°C° 0 mm 2 m/S 722 mmHg 32%
14:00 +25°C° 0 mm 2 m/S 722 mmHg 31%
15:00 +25°C° 0 mm 2 m/S 722 mmHg 33%
16:00 +24°C° 0 mm 2 m/S 722 mmHg 35%
17:00 +24°C° 0 mm 2 m/S 722 mmHg 36%
18:00 +20°C° 0 mm 2 m/S 722 mmHg 43%
19:00 +19°C° 0 mm 1 m/S 722 mmHg 50%
20:00 +16°C° 0 mm 1 m/S 722 mmHg 57%
21:00 +15°C° 0 mm 1 m/S 722 mmHg 57%
22:00 +15°C° 0 mm 2 m/S 722 mmHg 57%
23:00 +14°C° 0 mm 2 m/S 722 mmHg 57%

Morgen, 24 Juni, Donnerstag

Zeit Temperatur Niederschläge Wind Luftdruck Luftfeuchtigkeit
00:00 +14°C° 0 mm 2 m/S 722 mmHg 59%
01:00 +13°C° 0 mm 2 m/S 722 mmHg 61%
02:00 +13°C° 0 mm 2 m/S 722 mmHg 63%
03:00 +12°C° 0 mm 3 m/S 722 mmHg 65%
04:00 +12°C° 0 mm 3 m/S 722 mmHg 67%
05:00 +12°C° 0 mm 3 m/S 722 mmHg 69%
06:00 +14°C° 0 mm 3 m/S 723 mmHg 61%
07:00 +18°C° 0 mm 3 m/S 723 mmHg 54%
08:00 +20°C° 0 mm 4 m/S 723 mmHg 46%
09:00 +22°C° 0 mm 3 m/S 723 mmHg 42%
10:00 +25°C° 0 mm 3 m/S 723 mmHg 38%
11:00 +26°C° 0 mm 3 m/S 723 mmHg 34%
12:00 +27°C° 0 mm 2 m/S 723 mmHg 32%
13:00 +28°C° 0 mm 2 m/S 723 mmHg 29%
14:00 +29°C° 0 mm 2 m/S 723 mmHg 27%
15:00 +28°C° 0 mm 2 m/S 722 mmHg 29%
16:00 +28°C° 0 mm 2 m/S 722 mmHg 31%
17:00 +28°C° 0 mm 2 m/S 722 mmHg 33%
18:00 +25°C° 0 mm 2 m/S 722 mmHg 39%
19:00 +21°C° 0 mm 2 m/S 722 mmHg 45%
20:00 +19°C° 0 mm 2 m/S 722 mmHg 51%
21:00 +18°C° 0 mm 2 m/S 722 mmHg 51%
22:00 +18°C° 0 mm 2 m/S 722 mmHg 51%
23:00 +18°C° 0 mm 2 m/S 722 mmHg 52%

übermorgen, 25 Juni, Freitag

Zeit Temperatur Niederschläge Wind Luftdruck Luftfeuchtigkeit
00:00 +17°C° 0 mm 2 m/S 722 mmHg 53%
01:00 +17°C° 0 mm 2 m/S 722 mmHg 54%
02:00 +17°C° 0 mm 2 m/S 721 mmHg 56%
03:00 +16°C° 0 mm 2 m/S 722 mmHg 57%
04:00 +16°C° 0 mm 2 m/S 722 mmHg 59%
05:00 +16°C° 0 mm 3 m/S 722 mmHg 61%
06:00 +19°C° 0 mm 3 m/S 722 mmHg 54%
07:00 +23°C° 0 mm 2 m/S 722 mmHg 48%
08:00 +26°C° 0 mm 2 m/S 722 mmHg 41%
09:00 +28°C° 0 mm 2 m/S 722 mmHg 36%
10:00 +30°C° 0 mm 1 m/S 722 mmHg 32%
11:00 +31°C° 0 mm 1 m/S 722 mmHg 27%
12:00 +32°C° 0 mm 2 m/S 722 mmHg 26%
13:00 +32°C° 0 mm 2 m/S 721 mmHg 25%
14:00 +33°C° 0 mm 3 m/S 721 mmHg 24%
15:00 +31°C° 0 mm 3 m/S 721 mmHg 28%
16:00 +30°C° 0 mm 3 m/S 720 mmHg 32%
17:00 +29°C° 0 mm 3 m/S 720 mmHg 36%
18:00 +26°C° 0 mm 2 m/S 720 mmHg 43%
19:00 +23°C° 0 mm 1 m/S 720 mmHg 51%
20:00 +21°C° 0 mm 1 m/S 720 mmHg 58%
21:00 +18°C° 0 mm 0 m/S 720 mmHg 58%
22:00 +18°C° 0 mm 0 m/S 720 mmHg 59%
23:00 +17°C° 0 mm 0 m/S 720 mmHg 59%

26 Juni, Samstag

Zeit Temperatur Niederschläge Wind Luftdruck Luftfeuchtigkeit
00:00 +16°C° 0 mm 0 m/S 719 mmHg 60%
01:00 +16°C° 0 mm 0 m/S 719 mmHg 61%
02:00 +15°C° 0 mm 0 m/S 719 mmHg 62%
03:00 +15°C° 0 mm 0 m/S 719 mmHg 63%
04:00 +15°C° 0 mm 0 m/S 719 mmHg 65%
05:00 +15°C° 0 mm 0 m/S 719 mmHg 66%
06:00 +20°C° 0 mm 1 m/S 719 mmHg 58%
07:00 +22°C° 0 mm 1 m/S 720 mmHg 50%
08:00 +25°C° 0 mm 2 m/S 720 mmHg 42%
09:00 +26°C° 0 mm 2 m/S 720 mmHg 38%
10:00 +27°C° 0 mm 3 m/S 720 mmHg 34%
11:00 +29°C° 0 mm 3 m/S 720 mmHg 30%
12:00 +29°C° 0 mm 4 m/S 720 mmHg 30%
13:00 +29°C° 0 mm 4 m/S 720 mmHg 29%
14:00 +29°C° 0 mm 4 m/S 719 mmHg 29%
15:00 +27°C° 0 mm 4 m/S 719 mmHg 34%
16:00 +26°C° 0 mm 4 m/S 719 mmHg 39%
17:00 +24°C° 0 mm 3 m/S 720 mmHg 44%
18:00 +21°C° 0 mm 3 m/S 720 mmHg 55%
19:00 +18°C° 0 mm 2 m/S 720 mmHg 66%
20:00 +16°C° 0 mm 1 m/S 720 mmHg 77%
21:00 +15°C° 0 mm 1 m/S 720 mmHg 80%
22:00 +15°C° 0 mm 1 m/S 720 mmHg 83%
23:00 +14°C° 0 mm 1 m/S 720 mmHg 87%

27 Juni, Sonntag

Zeit Temperatur Niederschläge Wind Luftdruck Luftfeuchtigkeit
00:00 +14°C° 0 mm 1 m/S 720 mmHg 88%
01:00 +14°C° 0 mm 1 m/S 720 mmHg 90%
02:00 +13°C° 0 mm 1 m/S 720 mmHg 91%
03:00 +14°C° 0 mm 1 m/S 720 mmHg 90%
04:00 +14°C° 0 mm 1 m/S 720 mmHg 89%
05:00 +14°C° 0 mm 1 m/S 720 mmHg 88%
06:00 +16°C° 0 mm 1 m/S 720 mmHg 79%
07:00 +18°C° 0 mm 2 m/S 721 mmHg 70%
08:00 +19°C° 0 mm 2 m/S 721 mmHg 61%
09:00 +21°C° 0 mm 3 m/S 721 mmHg 53%
10:00 +22°C° 0 mm 4 m/S 721 mmHg 46%
11:00 +23°C° 0 mm 4 m/S 721 mmHg 38%
12:00 +23°C° 0 mm 4 m/S 721 mmHg 34%
13:00 +23°C° 0 mm 4 m/S 721 mmHg 30%
14:00 +23°C° 0 mm 5 m/S 721 mmHg 26%
15:00 +22°C° 0 mm 4 m/S 721 mmHg 31%
16:00 +21°C° 0 mm 4 m/S 721 mmHg 37%
17:00 +19°C° 0 mm 4 m/S 721 mmHg 43%
18:00 +17°C° 0 mm 3 m/S 722 mmHg 55%
19:00 +15°C° 0 mm 2 m/S 722 mmHg 67%
20:00 +12°C° 0 mm 2 m/S 722 mmHg 79%
21:00 +11°C° 0 mm 1 m/S 722 mmHg 83%
22:00 +11°C° 0 mm 1 m/S 722 mmHg 87%
23:00 +10°C° 0 mm 1 m/S 722 mmHg 91%

28 Juni, Montag

Zeit Temperatur Niederschläge Wind Luftdruck Luftfeuchtigkeit
00:00 +10°C° 0 mm 1 m/S 722 mmHg 91%
01:00 +9°C° 0 mm 0 m/S 722 mmHg 92%
02:00 +9°C° 0 mm 0 m/S 722 mmHg 92%
03:00 +10°C° 0 mm 1 m/S 723 mmHg 90%
04:00 +11°C° 0 mm 1 m/S 723 mmHg 89%
05:00 +11°C° 0 mm 1 m/S 723 mmHg 87%
06:00 +13°C° 0 mm 1 m/S 723 mmHg 75%
07:00 +16°C° 0 mm 1 m/S 724 mmHg 64%
08:00 +19°C° 0 mm 2 m/S 724 mmHg 53%
09:00 +20°C° 0 mm 2 m/S 724 mmHg 48%
10:00 +23°C° 0 mm 2 m/S 724 mmHg 44%
11:00 +25°C° 0 mm 3 m/S 724 mmHg 39%
12:00 +25°C° 0 mm 3 m/S 724 mmHg 39%
13:00 +25°C° 0 mm 4 m/S 724 mmHg 38%
14:00 +26°C° 0 mm 4 m/S 724 mmHg 38%
15:00 +25°C° 0 mm 4 m/S 723 mmHg 42%
16:00 +23°C° 0 mm 4 m/S 723 mmHg 45%
17:00 +23°C° 0 mm 4 m/S 723 mmHg 49%
18:00 +20°C° 0 mm 3 m/S 724 mmHg 59%
19:00 +18°C° 0 mm 2 m/S 724 mmHg 70%
20:00 +15°C° 0 mm 1 m/S 724 mmHg 80%
21:00 +15°C° 0 mm 1 m/S 724 mmHg 82%
22:00 +14°C° 0 mm 1 m/S 724 mmHg 84%
23:00 +14°C° 0 mm 1 m/S 724 mmHg 86%
Mehr zeigen

Wir brauchen deine Erlaubnis

Meteoprog und unser Service Anbieter werden persönliche Daten aufbewahren, so wie Cookies, Geräte Bezeichnung oder ähnliche Technologien von deinem Gerät und Prozess, so wie Persönliche Daten Inhalte und Werbungen, genauso wie social Media und den Verkehr zu analysieren.

  • Aufbewahrung und/oder Zugang zu deiner Geräte Informationen.

    Cookies, Geräte Bezeichnung oder andere Informationen, können aufbewahrt oder Zugang zu deinem Gerät erhalten, für den Grund, der oben angegeben wird.

  • Personalisierte Werbung und Inhalte, Messungen, Einblick in das Publikum und Produkt Entwicklung.

    Werbungen und Inhalte können personalisiert werden, basierend auf ein Profil. Mehr Daten können besser personalisierte Werbungen und Inhalte hinzufügen. Werbung und Inhalte können gezeigt und gemessen werden. Einblicke über das Publikum, welche die Werbung gesehen haben und den Inhalt, können abgeleitet werden. So wie Daten können genutzt werden, um es zu verbessern oder die Benutzer Erfahrung zu verbessern das System und die Software.

Wenn du “Ich stimme zu” klickst, erlaubst du uns, die Cookies zu benutzen die Geräte Bezeichnung, den Web oder ähnliche Technologien zu benutzen. Deine Settings, können in deinem Gerät bei deinem Browser geändert werden.

Für den bestimmten Zweck, berechtigten Interessen beruhen darauf, mehr als auf den Inhalt. Du kannst mehr darüber in unseren Privaten und Cookie Politik lesen.